Flag for Russia Weather past 2 weeks in Murmansk, Russia

Now
50 °F

Partly cloudy.


Feels Like: 50 °F
Forecast: 51 / 75 °F
Wind: No wind

Location: Murmansk Airport

Current Time: Aug 2, 2014 at 4:11:50 AM

Latest Report: Aug 2, 2014 at 3:30 AM


Visibility: N/A

Pressure: 29.77 "Hg

Humidity: 94%

Dew point: 48 °F

Location of MurmanskLocation

Historic Weather in Murmansk — Graph

°F

Murmansk temperature yesterday

Maximum temperature yesterday: 75 °F (at 4:00 PM)
Minimum temperature yesterday: 59 °F (at 11:00 PM)
Average temperature yesterday: 66 °F

Past Weeks' High & Low Weather Summary

 TemperatureHumidityPressure
High81 °F (Jul 21, 2:30 PM)94% (Jul 21, 4:00 AM)30.27 "Hg (Jul 21, 4:00 AM)
Low41 °F (Jul 30, 5:00 AM)32% (Jul 21, 2:00 PM)29.42 "Hg (Jul 31, 11:30 PM)
Average60 °F71%30.02 "Hg
* Reported Jul 18 2:00 AM — Aug 2 2:30 AM, Murmansk, Weather by CustomWeather, © 2014

Note: Actual official high and low records may vary slightly from our data, if they occured in-between our weather recording intervals... More about our weather records

Advertising

Murmansk weather history for previous 24 hours

 ConditionsComfort  
Time TempWeatherWind HumidityBarometerVisibility
2:30 AM
Aug 2
50 °FPartly cloudy.3 mph94%29.74 "HgN/A
2:00 AM52 °FPartly cloudy.3 mph94%29.74 "HgN/A
1:30 AM50 °FPartly cloudy.1 mph94%29.74 "HgN/A
1:00 AM52 °FPartly cloudy.1 mph88%29.74 "HgN/A
12:30 AM55 °FBroken clouds.No wind88%29.71 "HgN/A
12:00 AM55 °FBroken clouds.No wind88%29.71 "HgN/A
11:30 PM
Aug 1
59 °FBroken clouds.1 mph77%29.71 "HgN/A
11:00 PM59 °FScattered clouds.1 mph82%29.68 "HgN/A
10:30 PM61 °FPartly sunny.1 mph83%29.68 "HgN/A
10:00 PM63 °FPartly sunny.1 mph77%29.68 "HgN/A
9:30 PM68 °FBroken clouds.3 mph60%29.65 "HgN/A
9:00 PM70 °FBroken clouds.1 mph57%29.65 "HgN/A
8:30 PM66 °FBroken clouds.3 mph68%29.65 "HgN/A
8:00 PM70 °FBroken clouds.3 mph57%29.65 "HgN/A
7:30 PM70 °FBroken clouds.3 mph50%29.62 "HgN/A
7:00 PM70 °FScattered clouds.6 mph57%29.62 "HgN/A
6:30 PM73 °FScattered clouds.8 mph44%29.62 "HgN/A
6:00 PM72 °FScattered clouds.3 mph53%29.62 "HgN/A
5:30 PM70 °FScattered clouds.6 mph53%29.59 "HgN/A
5:00 PM73 °FScattered clouds.8 mph44%29.59 "HgN/A
4:30 PM73 °FScattered clouds.8 mph47%29.59 "HgN/A
4:00 PM75 °FScattered clouds.6 mph44%29.56 "HgN/A
3:30 PM72 °FScattered clouds.8 mph50%29.56 "HgN/A
3:00 PM73 °FScattered clouds.8 mph47%29.56 "HgN/A
2:30 PM72 °FScattered clouds.10 mph53%29.56 "HgN/A
2:00 PM70 °FBroken clouds.8 mph53%29.53 "HgN/A
1:30 PM72 °FBroken clouds.8 mph53%29.53 "HgN/A
1:00 PM70 °FBroken clouds.8 mph57%29.53 "HgN/A
12:30 PM68 °FBroken clouds.8 mph60%29.53 "HgN/A
12:00 PM70 °FBroken clouds.10 mph60%29.50 "HgN/A
11:30 AM68 °FBroken clouds.6 mph64%29.50 "HgN/A
11:00 AM66 °FPartly sunny.6 mph73%29.50 "HgN/A
10:30 AM66 °FPartly sunny.8 mph68%29.50 "HgN/A
10:00 AM66 °FBroken clouds.6 mph73%29.50 "HgN/A
9:30 AM64 °FBroken clouds.6 mph83%29.50 "HgN/A
9:00 AM64 °FPartly sunny.6 mph83%29.47 "HgN/A
8:30 AM63 °FPartly sunny.3 mph88%29.47 "HgN/A
8:00 AM64 °FPartly sunny.3 mph83%29.47 "HgN/A
7:30 AM63 °FPartly sunny.1 mph88%29.47 "HgN/A
7:00 AM61 °FPartly sunny.1 mph94%29.47 "HgN/A
6:30 AM61 °FPartly sunny.1 mph88%29.47 "HgN/A
6:00 AM61 °FBroken clouds.3 mph88%29.45 "HgN/A
5:30 AM61 °FBroken clouds.6 mph88%29.45 "HgN/A
5:00 AM61 °FBroken clouds.6 mph88%29.45 "HgN/A
4:30 AM61 °FBroken clouds.6 mph88%29.45 "HgN/A
4:00 AM63 °FPartly sunny.6 mph83%29.45 "HgN/A
Weather by CustomWeather, © 2014

See weather overviewHow to use our weather pages